WGS F2 (USA 204)

Last updated on Tue Sep 22 2026 00:03:11 GMT+0000 (Coordinated Universal Time)

1 34713U 09017A 26264.61038406 .00000000 00000+0 00000+0 0 9991 2 34713 0.0217 160.5237 0000560 351.2991 125.9136 1.00270878 46588
UTC large
Height (km)
Speed (km/s)
/
Latitude / Longitude
Inclination (degrees)
Orbital Period (minutes)
Azimuth
Elevation
Range (km)
Doppler Factor

Next 0 passes for location: London (51.5072 / 0.1276)

No passes found over London.
WGS F2 (USA 204)